Theta_e
294 294 295 294 292 292 293 294 293 292 292 293 294 296 297 296 297 296 297 297 299 300 300 300 301 301 301 301 300 298 300 301 300 300 301 298 297 297 298 297 297 297 297 298 299 298 299 300 302 303 305 305 306 306 306 306 305 304 304 304 303 303
293 293 294 295 296 294 293 292 290 292 292 292 293 294 294 294 295 294 296 296 296 298 298 299 300 300 300 300 299 299 300 301 300 300 298 299 296 298 296 297 296 295 295 294 296 297 297 298 299 300 302 303 304 304 303 302 303 303 302 301 299 301
294 294 292 292 290 288 289 289 291 292 291 291 292 293 295 295 295 293 296 293 296 295 297 298 296 297 298 297 297 299 300 300 299 299 298 292 297 294 295 295 296 296 295 296 296 298 299 299 299 298 300 300 301 300 300 299 298 299 299 298 297 297
294 295 294 290 291 294 293 293 290 290 290 291 291 291 294 294 295 294 295 294 295 295 297 296 293 296 295 296 296 297 298 298 297 296 292 294 296 292 295 295 295 293 294 295 296 296 297 298 300 298 298 298 298 297 298 298 296 296 297 296 296 295
291 291 291 292 291 292 290 291 293 293 292 291 289 290 294 293 294 293 292 293 293 294 294 293 294 294 292 293 295 294 296 295 293 291 294 294 294 291 293 294 293 293 293 294 295 296 296 296 296 296 296 296 297 297 296 297 295 295 296 296 296 296
292 292 294 295 294 293 293 292 291 292 291 291 291 292 294 294 293 291 290 291 292 292 291 292 293 291 291 292 294 294 294 293 293 291 293 294 293 293 292 292 293 293 293 293 294 294 294 294 294 294 294 296 296 296 296 295 295 295 295 296 296 295
293 293 293 293 293 293 293 292 292 291 291 291 291 292 293 293 292 291 292 290 291 291 290 291 290 291 291 292 293 293 293 292 291 290 292 292 292 293 292 291 291 292 292 293 294 294 293 293 293 293 293 293 293 294 295 295 295 295 295 295 296 294
293 294 293 294 294 293 292 292 291 291 290 291 289 291 292 292 289 290 291 291 290 292 291 291 290 291 292 292 292 292 292 291 291 291 291 291 293 292 291 292 291 291 292 293 293 293 293 292 292 292 293 292 292 292 293 294 294 294 294 294 294 294
293 292 293 292 292 292 292 292 293 293 293 294 292 290 289 291 290 290 290 291 289 291 292 292 292 292 292 292 292 291 291 291 291 290 292 290 291 292 292 291 292 291 291 292 292 292 293 292 292 292 292 292 292 292 293 293 293 293 293 294 294 294
291 292 292 292 292 292 293 293 292 292 293 293 294 292 290 291 289 289 289 289 290 291 292 293 292 292 292 291 291 291 291 291 290 290 290 288 290 291 292 292 292 291 290 292 292 292 291 291 291 291 291 291 291 291 291 292 291 292 292 292 292 292
291 291 291 291 292 292 293 293 293 293 293 292 292 291 292 289 289 290 289 288 289 291 292 292 292 292 291 290 290 291 291 290 290 289 289 288 289 290 290 291 291 291 290 290 290 291 290 291 292 292 291 291 290 290 290 291 291 291 291 291 291 291
290 290 290 291 291 292 292 293 293 293 292 293 293 292 291 289 290 289 289 289 290 291 291 291 290 291 290 290 291 291 290 290 289 288 288 289 289 289 289 289 289 290 291 291 290 290 290 291 292 291 292 292 291 290 291 291 291 291 291 290 290 290
289 289 290 290 291 291 291 292 292 292 292 292 292 292 292 290 290 290 289 290 290 289 289 289 289 289 289 290 290 290 290 290 289 288 288 288 288 288 288 288 288 289 289 290 290 290 290 291 291 291 293 294 294 291 289 290 290 290 290 290 290 290
289 289 290 290 290 290 290 291 291 290 291 291 291 291 290 290 290 290 291 291 291 290 289 288 289 288 289 288 289 289 289 288 288 288 288 288 288 288 287 287 288 289 289 289 289 289 290 290 290 292 293 294 294 293 290 290 290 290 290 289 289 289
288 288 288 289 290 290 290 289 288 289 290 290 290 289 289 289 289 290 290 290 290 290 290 289 289 289 288 289 288 288 288 287 287 288 288 288 288 287 287 288 287 288 288 288 288 288 288 288 290 292 293 293 293 294 292 290 289 289 289 289 289 289
288 288 287 288 288 288 288 287 287 288 288 288 288 288 288 288 289 289 289 289 289 289 289 288 288 288 288 288 288 287 287 287 288 288 288 288 287 287 287 287 287 287 287 287 287 288 288 287 289 291 292 292 292 293 293 289 288 288 288 289 289 288
288 288 288 289 288 287 288 288 287 287 287 286 286 286 286 287 287 288 288 288 288 288 288 288 288 288 288 288 287 287 287 287 287 287 287 287 288 287 287 288 287 287 287 286 286 287 287 287 290 291 291 292 292 292 292 288 287 287 287 288 287 287
288 287 288 288 287 288 287 287 287 286 287 286 285 286 286 286 286 287 287 287 288 287 287 287 287 287 287 287 287 286 287 287 287 287 287 286 286 286 285 286 286 286 286 286 286 286 286 286 289 290 291 291 292 292 289 288 287 286 286 286 286 286
287 287 286 286 286 286 287 287 286 285 285 285 286 286 286 286 286 287 287 287 287 287 287 286 286 286 287 287 286 286 287 287 287 287 285 285 286 286 285 286 286 286 286 285 285 285 285 285 287 290 290 291 291 291 287 287 286 286 285 285 285 284
286 286 286 286 286 286 286 285 285 284 284 285 285 285 285 285 286 286 286 286 286 286 286 286 285 285 286 286 286 286 287 286 286 286 285 285 286 285 285 285 285 284 284 284 284 284 284 285 286 289 290 290 291 289 287 286 286 285 285 284 283 283
285 285 285 284 285 286 285 284 283 283 284 284 284 284 284 285 286 286 286 286 285 285 285 285 284 284 284 285 285 286 286 286 286 285 282 283 284 285 283 282 282 282 281 282 283 283 284 284 284 288 289 290 290 289 286 286 285 284 283 283 282 282
284 284 285 285 286 286 285 284 283 283 283 284 284 284 284 285 286 285 285 285 285 284 284 284 283 283 283 284 284 284 285 284 283 283 282 282 281 282 280 279 281 281 281 280 280 281 282 282 282 285 288 289 289 290 287 286 285 284 283 282 282 281
283 284 285 286 286 285 284 283 283 283 283 283 283 284 285 285 285 284 284 284 283 283 283 283 282 282 282 282 282 282 282 281 282 281 279 280 279 277 278 278 279 279 279 278 278 278 279 282 283 284 287 289 289 290 287 285 285 285 283 281 280 280
282 283 283 283 284 284 283 282 282 282 283 282 283 284 285 284 283 283 283 283 282 282 282 281 281 279 280 280 279 280 280 278 275 277 278 278 276 277 278 276 277 278 277 277 276 277 280 282 284 284 286 288 289 289 288 285 285 284 282 280 280 280
282 283 283 284 283 283 282 278 280 281 282 282 283 284 284 283 282 282 281 281 281 281 281 280 279 279 278 278 278 277 279 276 274 274 274 275 275 276 277 276 276 276 276 276 277 278 280 281 283 284 284 286 288 289 289 287 285 285 282 280 279 279
282 283 283 284 284 281 280 279 280 280 280 281 284 283 282 281 281 280 279 280 280 280 280 279 278 277 276 276 276 275 276 276 274 273 275 275 276 276 276 275 276 275 276 276 277 278 280 281 282 283 284 285 287 288 288 287 286 285 281 281 280 280
282 282 282 283 282 283 281 278 280 280 280 282 282 281 281 280 279 278 278 278 279 278 278 277 276 276 275 274 273 275 276 275 272 274 273 274 276 276 276 276 276 276 277 276 278 279 280 281 282 282 284 285 286 287 288 287 286 285 284 281 281 281
281 281 281 282 281 282 282 280 277 279 281 282 281 280 279 278 277 277 278 278 278 277 276 275 276 275 274 273 272 273 274 275 275 275 274 273 274 275 275 275 275 276 277 278 279 279 279 280 281 282 283 284 285 286 287 286 285 284 283 282 281 282
280 280 280 280 281 280 281 281 281 280 280 280 280 279 277 276 276 277 277 278 277 276 274 274 276 276 275 272 272 271 272 273 273 274 275 275 276 277 277 277 278 278 278 278 279 279 280 280 281 282 283 284 285 285 285 284 284 283 283 281 281 282
278 279 279 279 280 280 280 280 280 280 279 279 279 277 275 275 276 277 277 277 276 275 274 274 276 276 275 273 272 272 272 272 272 274 276 278 279 279 279 279 279 279 278 278 279 279 280 280 281 282 282 283 283 283 283 283 282 281 280 280 281 282
277 278 278 278 279 279 279 279 279 279 278 278 277 275 274 275 276 276 276 276 275 275 275 275 275 274 273 273 272 271 273 273 274 276 276 278 279 279 279 279 279 279 280 280 279 279 279 280 280 282 284 284 284 283 282 281 281 281 281 282 283 283
276 276 277 277 278 278 278 278 278 278 278 276 275 274 273 275 276 276 276 276 275 275 274 274 273 272 272 272 271 272 274 278 281 279 278 277 281 283 283 283 280 280 279 279 280 281 280 280 281 285 285 285 284 284 283 283 283 283 283 284 285 284
275 275 275 275 276 276 276 276 277 277 277 276 275 273 273 274 275 276 277 276 276 276 275 274 273 272 271 272 273 273 274 275 278 283 283 283 282 282 283 283 282 282 282 281 279 281 284 284 285 285 285 285 285 284 284 284 284 284 285 286 284 281
272 272 272 273 273 274 274 275 276 276 276 276 274 273 273 273 275 276 277 277 276 276 276 275 275 274 274 273 273 274 273 275 277 278 282 283 282 283 282 282 282 282 282 282 282 281 281 284 285 285 285 285 285 284 284 285 285 285 285 285 284 280
269 269 269 270 271 272 273 274 275 276 276 276 274 273 272 273 274 275 276 277 277 277 277 277 275 276 276 276 276 275 275 275 277 278 278 280 283 282 282 282 283 282 282 282 282 283 283 284 285 285 285 285 285 285 284 285 285 285 285 285 281 278
267 267 268 269 270 271 272 273 274 275 275 274 273 272 271 272 273 274 276 277 277 277 278 277 276 276 277 277 278 278 278 278 279 279 279 278 279 280 281 283 283 282 282 282 283 283 284 285 285 285 285 285 284 285 285 285 284 285 286 282 278 277
265 266 268 270 271 272 272 273 273 274 274 273 272 271 270 271 272 274 275 276 277 279 279 279 279 277 277 278 278 278 278 278 278 278 278 278 278 277 277 278 279 282 282 281 282 283 284 285 285 285 284 284 284 284 285 285 283 281 281 277 274 275
266 267 269 271 272 273 272 271 272 273 272 270 269 269 271 272 274 275 275 277 277 279 279 280 280 279 279 279 278 278 278 278 277 277 277 276 276 277 277 277 278 279 281 282 282 283 284 285 285 284 284 284 284 285 285 281 279 279 277 273 271 270
Wind_Speed
6 5 6 5 4 5 5 6 5 4 4 4 4 8 6 6 5 5 5 5 6 6 7 7 8 7 7 6 5 5 7 8 6 7 8 5 5 5 6 6 7 7 7 7 7 7 8 7 8 8 9 9 9 10 10 8 7 8 9 9 10 11
5 5 7 9 8 8 6 5 4 5 5 4 5 5 5 6 6 5 6 5 5 7 6 7 6 6 6 6 6 7 9 9 8 8 6 7 5 7 5 6 7 7 8 7 8 8 8 8 8 8 9 9 10 9 8 7 7 9 9 9 8 8
7 7 6 6 6 4 5 4 5 5 4 4 4 6 7 7 6 4 6 4 6 6 8 7 5 7 6 6 7 8 9 8 8 8 7 5 8 5 7 7 8 7 8 8 9 10 9 9 9 8 8 9 10 9 8 6 7 9 8 7 8 8
8 8 8 6 8 10 12 10 7 5 4 3 4 5 7 7 9 5 6 5 6 6 7 6 5 6 5 7 7 9 10 8 7 7 5 7 8 6 8 8 7 7 8 8 9 9 10 10 10 8 8 10 10 10 7 7 7 8 9 6 9 7
5 5 6 6 6 6 7 7 8 8 8 7 5 5 9 5 7 5 5 5 5 7 6 6 7 6 6 7 9 9 10 9 7 6 8 9 8 6 8 8 8 8 8 9 9 9 9 9 9 8 8 10 10 10 8 8 7 9 9 9 10 9
4 6 8 10 10 8 7 6 5 7 7 7 7 8 10 9 6 5 5 5 7 6 6 7 7 6 7 9 10 10 9 8 7 6 8 10 8 10 9 8 9 8 9 10 10 9 9 9 8 8 9 10 10 10 9 8 8 9 9 10 10 9
5 5 5 5 5 6 7 8 8 7 8 6 7 7 8 8 7 6 7 5 7 7 7 8 7 7 8 10 9 10 9 8 7 6 9 7 8 8 6 8 7 8 9 11 11 10 10 10 9 10 10 9 8 9 9 8 8 9 10 10 10 9
10 12 11 10 9 8 8 8 7 6 6 6 5 6 8 7 5 6 7 6 7 9 8 9 7 8 10 10 10 10 9 8 8 8 8 8 10 8 8 9 8 9 11 10 10 10 10 9 9 10 11 10 9 9 9 9 9 9 9 9 9 9
11 9 9 8 7 8 7 7 9 8 7 9 6 5 5 7 6 6 6 6 6 8 9 9 9 8 8 9 9 8 7 8 8 7 9 7 8 8 9 9 9 9 9 10 9 11 11 10 10 10 10 9 9 9 9 9 9 9 9 9 9 9
8 9 9 10 10 9 8 6 6 6 7 9 9 8 7 7 6 6 6 6 7 7 10 10 9 8 8 7 7 8 8 8 7 8 7 6 9 10 10 10 10 9 8 10 10 10 9 9 9 10 10 9 9 9 9 9 9 9 9 8 8 8
8 9 9 9 9 10 10 10 9 9 8 6 6 7 8 5 6 7 6 6 7 9 9 9 8 7 8 7 8 8 9 8 7 7 7 7 9 8 9 9 8 8 9 10 9 9 9 10 11 10 10 10 10 9 9 9 9 9 9 9 9 8
7 8 8 9 10 10 11 11 11 11 11 11 9 7 5 6 7 7 7 7 8 9 8 8 8 8 8 8 9 9 8 8 7 6 7 8 9 9 8 8 8 8 10 10 10 9 9 10 9 11 15 13 10 9 9 8 9 9 9 9 8 8
7 7 8 9 10 10 10 9 9 10 11 11 12 12 10 8 8 7 6 8 7 7 7 7 8 7 8 9 8 8 8 9 7 7 8 8 8 9 8 7 8 9 9 10 10 10 10 9 8 12 14 15 15 10 8 9 8 8 8 8 8 9
7 8 8 9 9 9 9 11 12 12 13 12 13 13 12 12 11 12 13 11 10 7 6 7 7 7 8 7 9 8 8 7 7 8 8 8 9 9 6 8 10 10 9 9 9 10 10 9 9 13 14 15 15 13 9 8 8 8 8 8 8 7
5 6 7 6 8 8 8 7 8 9 11 13 13 12 12 12 11 11 12 12 11 12 11 10 10 10 9 9 8 8 7 7 8 8 8 10 9 6 8 10 9 10 8 9 10 10 9 8 9 13 14 14 14 15 12 7 6 6 7 7 7 7
6 6 5 6 7 6 6 5 6 7 7 9 9 9 11 10 12 10 11 11 10 10 10 9 10 10 10 9 9 8 8 7 9 8 7 7 6 7 8 8 10 9 9 9 9 10 8 8 9 13 14 14 15 15 13 7 7 7 7 7 6 6
7 8 9 8 7 7 8 9 5 6 6 6 9 7 8 9 9 10 10 10 10 9 9 10 10 11 11 9 9 8 8 8 9 8 8 7 8 8 9 9 9 9 8 8 8 8 9 8 11 13 13 14 14 14 12 6 5 5 5 5 5 5
7 7 9 8 8 9 7 8 8 9 12 9 7 9 7 8 9 9 9 10 10 9 9 9 11 11 11 10 10 9 9 9 9 10 8 7 8 7 7 7 7 9 9 9 8 8 10 8 11 12 13 14 12 13 8 5 6 6 5 5 5 5
8 8 6 7 7 8 9 9 8 8 10 11 11 10 10 9 10 10 10 10 10 10 10 10 11 12 11 10 10 10 10 10 10 8 5 7 8 8 8 9 9 8 8 8 8 9 9 7 9 12 13 13 12 9 6 5 5 5 5 5 4 4
8 7 6 8 10 9 7 6 7 8 9 10 9 9 11 10 11 10 9 10 10 10 10 10 9 11 12 10 11 11 11 9 8 8 5 7 8 9 9 8 8 7 7 8 9 9 9 8 8 12 12 12 13 9 6 5 5 5 5 4 4 5
6 8 8 7 8 9 6 6 6 7 10 9 9 8 9 10 10 10 11 13 12 11 10 9 9 9 10 11 11 9 11 10 9 8 5 7 7 9 6 6 7 7 6 6 7 8 9 6 6 8 9 11 11 9 6 6 6 6 6 6 5 5
6 6 7 8 9 8 8 6 7 8 9 10 8 10 11 10 10 11 10 11 11 10 10 9 9 9 9 11 11 9 9 8 8 8 7 7 6 8 6 6 6 7 7 5 5 6 6 5 4 5 9 12 14 14 8 6 6 7 6 6 5 5
5 7 8 9 9 8 7 6 7 9 9 9 10 11 11 10 10 10 11 11 11 11 11 9 7 10 10 8 10 10 8 7 7 7 6 8 7 6 7 6 6 6 6 5 5 5 4 5 6 7 11 12 12 12 10 6 8 7 6 6 6 6
4 6 7 7 8 7 7 6 7 8 9 9 11 11 9 9 10 10 10 12 12 11 11 10 9 7 8 9 7 9 10 6 5 6 6 6 5 6 7 5 5 6 6 4 4 4 5 5 7 4 8 11 12 13 13 8 7 6 7 6 6 6
4 6 6 6 5 5 5 5 6 9 9 11 13 11 9 8 8 9 10 11 12 12 11 10 9 9 7 8 7 7 10 8 6 6 4 5 5 6 7 6 5 4 5 4 5 4 4 4 5 7 6 9 12 14 14 13 6 10 7 8 8 7
4 6 7 8 7 4 3 4 6 6 7 12 11 10 10 9 9 9 10 11 11 11 11 10 9 8 7 7 7 7 8 9 7 5 5 5 5 6 7 6 5 4 4 5 5 4 4 4 5 6 8 7 11 13 13 12 12 12 6 6 6 6
7 7 8 6 6 7 5 4 6 9 11 10 6 10 11 10 9 9 11 11 10 10 9 9 9 9 8 7 5 7 8 7 6 7 5 4 5 5 6 6 4 5 5 5 5 5 4 4 4 4 6 9 9 11 12 12 13 12 12 7 5 7
8 7 9 10 5 8 8 5 4 9 13 9 7 8 9 10 11 11 12 11 9 9 8 9 9 7 7 7 6 6 6 6 6 7 6 4 5 5 5 5 4 5 5 5 5 5 4 3 3 4 4 5 7 7 11 12 13 12 12 8 8 11
11 12 11 13 9 6 8 9 8 7 9 11 10 8 8 10 10 11 12 11 10 9 7 8 9 8 7 5 6 6 6 6 5 6 6 5 5 5 5 5 4 5 5 6 5 4 4 4 4 4 5 6 7 7 9 10 10 13 11 7 7 10
9 10 11 12 11 8 8 8 9 9 9 9 10 9 9 10 10 11 12 12 9 9 8 8 9 9 8 7 6 7 7 5 4 5 6 6 6 6 6 5 6 7 7 6 5 3 3 4 3 3 5 6 6 6 6 6 7 7 6 6 7 7
9 10 11 13 10 9 10 10 10 9 9 9 8 8 9 11 10 11 11 11 8 9 7 7 7 7 7 7 6 6 6 6 5 5 6 5 4 4 4 4 5 4 3 3 3 4 5 4 5 5 2 3 6 7 7 7 7 7 6 8 11 9
8 12 14 12 9 9 11 12 12 10 8 7 7 6 8 11 11 11 11 9 8 9 8 7 7 6 6 6 6 7 6 6 8 8 6 6 6 6 5 4 4 3 2 3 3 2 3 4 3 2 7 9 10 11 10 9 11 10 8 13 18 10
12 12 13 13 11 11 11 12 12 11 10 8 7 7 9 9 9 10 11 9 8 9 8 8 8 7 6 6 5 5 5 6 6 6 6 5 3 3 3 3 1 1 2 1 2 3 3 1 3 8 9 11 12 13 13 14 14 15 17 19 13 9
13 13 14 14 13 13 13 13 12 9 10 10 9 8 8 8 9 10 12 10 9 9 9 8 8 7 6 6 5 5 5 5 5 5 4 5 4 3 4 4 4 5 6 5 2 2 1 4 8 10 11 11 13 13 14 15 16 17 19 20 14 9
12 12 13 13 14 15 15 15 14 10 9 9 8 8 9 9 9 11 12 11 10 10 10 9 8 7 7 6 6 6 5 6 6 6 5 2 4 5 5 6 6 6 6 7 6 5 3 3 6 10 10 10 12 13 14 15 16 17 20 18 9 6
14 13 13 13 15 14 14 14 13 11 11 10 10 9 9 10 10 11 10 11 11 10 10 8 7 7 7 6 6 6 5 6 5 5 4 4 3 2 3 4 5 5 6 7 6 6 7 9 10 11 10 10 11 13 14 14 11 17 20 12 7 7
16 15 14 16 15 14 12 13 11 11 12 11 11 11 10 10 11 10 12 16 13 10 10 9 8 7 7 6 6 6 6 6 5 4 5 4 4 3 2 0 0 2 6 5 5 8 10 11 12 11 11 11 11 12 14 14 9 10 8 4 3 5
13 14 14 13 11 12 14 16 12 12 11 11 11 11 11 11 11 11 11 11 12 10 9 9 8 7 7 7 7 7 6 5 4 4 4 2 1 1 1 1 1 2 5 7 5 7 9 11 12 11 12 12 13 13 14 7 5 5 4 4 3 4
Wind_Direction
340 329 315 309 295 294 295 299 302 294 270 250 244 264 262 263 260 250 247 230 236 230 232 231 234 233 238 238 236 232 236 242 236 237 242 245 225 225 222 222 227 225 227 227 235 230 232 232 234 232 237 235 241 238 240 234 228 227 226 222 217 222
324 322 325 328 331 331 315 300 301 284 273 266 266 274 277 281 274 268 265 256 246 251 245 243 233 229 230 230 227 233 235 237 232 236 239 232 223 228 219 224 227 223 226 226 230 232 231 231 232 230 233 233 237 238 239 238 230 233 231 229 220 220
333 333 330 327 326 306 305 304 297 289 306 299 296 293 300 292 278 260 261 259 254 254 253 253 249 249 237 234 224 233 239 240 231 232 229 218 230 211 220 225 226 223 223 224 226 228 228 228 231 226 229 232 239 237 237 236 232 240 244 235 231 223
338 336 341 346 354 352 348 339 331 322 316 293 304 303 281 288 294 284 278 264 258 258 264 267 259 252 252 249 245 238 239 237 234 230 222 229 232 199 223 225 223 221 221 224 228 228 229 229 231 226 224 232 236 240 232 234 233 242 248 233 238 225
309 322 322 331 348 341 336 338 342 333 330 334 321 301 287 267 274 286 274 271 267 263 263 266 261 254 250 250 250 249 248 241 229 210 221 231 233 212 218 223 219 219 219 225 229 227 227 226 228 224 221 231 232 234 233 226 222 231 237 236 236 230
346 356 357 355 357 352 341 325 324 329 331 323 322 312 301 308 303 300 290 279 271 266 268 261 258 254 248 246 249 250 249 246 245 230 229 230 220 222 219 211 215 214 217 224 227 225 226 226 225 224 224 228 227 231 234 229 226 229 232 234 236 229
15 14 0 354 347 343 349 352 344 337 323 320 313 303 298 299 308 308 296 287 288 283 270 266 258 255 251 248 253 252 252 246 244 232 233 235 236 234 229 231 215 216 216 221 222 221 221 222 218 222 227 228 226 228 231 232 230 230 231 231 232 229
360 1 353 350 354 352 347 346 343 333 319 310 293 292 304 300 309 294 295 299 294 290 282 274 269 258 256 256 258 255 255 251 242 240 239 227 238 232 227 227 220 216 222 221 221 218 221 216 214 219 223 222 220 225 229 232 232 232 232 231 231 230
352 341 344 346 343 347 344 345 343 344 340 334 335 312 299 305 315 306 301 297 287 287 283 283 275 267 266 262 261 265 259 251 247 242 243 232 235 235 234 230 229 224 221 225 219 221 217 214 213 219 221 219 217 219 224 231 231 231 231 230 229 228
341 345 340 341 343 338 342 343 342 340 339 334 332 336 334 322 319 308 300 294 289 278 279 277 280 281 275 275 272 266 261 259 253 246 248 237 236 236 237 234 230 231 219 227 224 224 216 213 215 219 218 216 214 215 221 220 228 233 234 234 231 226
333 333 336 334 337 342 342 342 343 343 340 335 333 338 333 329 327 312 300 293 279 276 274 281 284 286 284 282 277 272 267 261 256 253 245 238 243 239 239 237 233 230 230 232 230 230 218 216 219 216 212 211 213 213 217 218 223 226 231 232 232 229
329 329 331 336 341 340 341 343 342 343 338 334 335 334 328 345 326 312 305 293 284 285 287 287 288 285 284 281 274 270 269 267 260 253 247 242 240 243 238 239 234 231 233 233 232 229 226 228 227 220 213 209 209 209 216 216 221 222 227 229 233 232
323 329 337 337 338 337 335 334 334 335 335 337 337 335 335 339 327 321 303 295 289 289 291 290 284 282 277 270 270 270 269 267 261 252 249 247 243 241 238 232 234 231 232 233 233 229 228 232 231 225 218 217 215 212 217 217 221 221 225 226 228 232
330 333 331 329 328 333 338 339 340 338 335 334 334 331 332 336 335 332 327 323 323 320 309 297 292 290 285 283 276 273 270 268 262 255 250 250 246 242 235 234 233 235 232 234 235 235 232 233 230 225 223 221 220 217 218 220 222 219 222 224 226 230
313 308 313 318 319 325 326 328 328 327 325 327 325 327 331 331 329 328 324 325 330 325 325 322 318 310 305 296 291 286 282 272 266 259 255 251 247 244 233 236 234 238 233 231 235 237 234 237 225 226 225 223 222 223 220 224 222 220 223 219 219 219
312 308 299 296 298 301 303 302 295 299 303 306 312 319 317 320 319 324 319 320 324 322 321 321 317 312 305 301 297 293 285 277 267 265 258 260 255 239 244 238 236 237 233 229 232 238 236 234 226 226 225 223 224 226 223 224 216 223 222 222 215 212
308 313 318 319 319 315 324 324 323 317 313 316 315 311 310 314 315 317 317 316 318 321 322 322 317 311 309 304 297 292 283 274 274 270 259 251 248 241 239 238 237 237 232 232 229 237 239 233 226 227 224 225 226 227 225 218 216 219 226 222 217 211
310 305 305 312 323 325 331 320 328 334 324 323 314 314 315 312 314 311 314 316 319 320 319 318 313 309 308 304 299 291 283 276 265 267 263 254 256 248 249 251 236 240 233 228 224 229 238 231 220 222 224 225 224 221 217 211 209 216 216 217 208 207
310 306 307 309 312 317 320 321 327 326 321 324 324 325 322 325 320 320 320 317 318 318 318 317 310 307 305 302 298 291 283 278 275 265 252 256 253 249 243 240 234 233 231 228 222 225 234 231 219 219 220 220 214 204 207 201 205 209 211 212 202 187
308 307 312 314 314 309 307 314 320 320 315 312 315 320 319 322 315 316 316 312 315 312 312 309 305 302 303 302 296 291 287 279 272 270 245 243 251 247 243 241 248 240 230 227 226 220 227 231 219 219 218 214 211 203 199 194 197 204 199 193 175 173
291 296 309 307 303 302 309 311 315 314 309 310 312 313 310 310 311 317 318 315 313 311 308 305 301 295 295 295 291 289 290 287 279 277 257 247 249 252 250 243 245 250 241 237 235 227 227 232 227 214 208 209 205 202 190 187 190 192 189 177 182 179
313 309 305 303 297 305 312 316 321 314 308 309 316 314 311 309 312 310 308 306 307 306 305 303 302 296 292 291 291 287 278 284 290 278 265 259 249 257 249 242 237 243 244 233 234 231 224 224 224 206 203 206 206 200 187 182 184 193 187 183 168 145
269 281 289 293 296 302 305 314 317 310 309 310 313 305 302 305 307 308 306 306 306 306 304 301 294 297 295 284 284 289 286 279 274 279 271 267 266 262 259 243 240 236 243 229 228 222 225 209 210 214 207 208 205 196 172 193 194 193 175 167 161 167
277 278 282 280 282 287 297 303 300 293 300 304 295 289 297 301 302 303 305 304 303 302 301 301 300 290 288 296 295 293 290 282 276 267 265 271 266 259 256 249 241 236 236 231 213 207 215 214 211 196 208 208 204 201 183 189 200 175 159 156 162 158
287 281 277 271 265 269 270 269 281 294 302 300 293 301 302 299 299 300 300 300 299 299 299 299 300 302 305 299 297 290 287 293 290 276 262 257 258 254 257 249 242 230 231 228 224 220 216 203 202 199 202 213 209 207 199 199 171 165 158 165 168 169
296 297 301 306 303 281 259 238 261 266 273 281 291 300 302 303 300 298 295 293 292 295 297 299 301 299 298 297 299 293 286 288 281 277 260 245 242 251 255 260 244 238 233 225 234 229 211 209 196 202 199 206 208 211 205 185 171 163 163 161 160 158
310 309 304 300 301 302 302 287 289 296 291 289 304 300 302 299 298 293 288 288 287 287 288 294 293 294 294 293 288 290 285 284 281 276 269 242 250 242 247 256 246 239 242 241 235 230 221 209 199 193 196 193 196 201 205 171 167 165 158 157 165 161
319 316 313 310 315 314 312 300 273 290 291 298 298 295 297 299 300 298 291 290 288 285 289 292 289 283 279 285 276 260 264 269 278 268 275 261 248 244 238 245 251 256 255 252 250 244 235 221 195 195 180 177 172 170 162 164 168 170 172 155 159 161
325 320 318 310 313 314 304 307 301 281 291 301 305 302 298 297 294 291 290 289 292 292 290 286 288 294 289 282 283 273 264 258 257 264 267 256 249 250 244 235 235 242 248 248 247 249 245 231 217 195 180 173 172 174 171 163 161 155 146 143 152 154
308 306 308 304 308 310 300 297 296 296 294 296 301 304 302 295 291 291 292 293 293 290 289 285 283 285 289 287 280 282 283 267 242 249 248 241 242 241 245 234 230 228 227 237 237 243 254 247 253 217 184 177 163 157 150 148 141 148 150 147 152 153
306 301 301 302 309 310 306 304 301 302 299 296 299 301 301 295 293 287 285 287 289 283 280 273 276 275 280 286 285 264 248 252 258 246 254 264 255 251 258 260 265 258 274 279 252 228 231 235 228 230 195 161 151 149 145 145 148 145 149 154 155 149
309 310 307 304 311 311 309 307 306 307 303 298 298 299 292 292 295 294 289 288 284 282 283 276 270 266 264 266 274 288 293 260 235 225 231 261 274 263 258 240 240 237 213 232 245 251 260 267 302 159 156 150 143 141 141 139 143 143 143 156 158 156
317 311 308 309 317 311 307 304 304 309 309 304 300 301 294 292 293 290 288 287 282 281 278 276 275 265 256 251 250 261 272 288 305 272 240 228 234 253 262 273 274 268 205 222 269 320 330 342 176 170 154 149 145 142 143 149 151 152 157 158 148 151
319 318 314 314 313 310 308 305 303 312 309 309 310 304 294 289 288 290 291 293 287 287 280 270 266 264 256 256 238 234 243 266 264 279 246 203 201 208 223 233 216 204 190 199 203 220 337 194 189 177 163 154 151 148 151 156 158 161 164 161 150 144
311 308 309 308 307 307 308 305 306 313 308 309 308 300 293 288 283 282 285 286 287 284 279 272 264 256 251 252 245 240 229 232 244 247 258 230 203 211 229 236 235 222 209 196 192 200 196 194 187 178 167 159 154 154 158 161 164 167 164 150 145 150
308 305 305 302 300 298 297 298 306 316 315 317 313 305 294 291 288 283 283 287 287 285 280 272 259 254 251 244 242 238 229 233 229 242 251 254 274 244 229 225 222 221 205 203 193 191 190 192 181 169 164 166 165 162 164 163 166 168 163 155 152 148
304 302 301 300 298 298 299 300 312 318 316 319 317 311 303 296 293 291 286 281 278 276 276 272 264 253 247 243 239 238 235 230 224 218 221 223 230 232 220 42 6 212 197 194 199 199 197 187 166 160 158 164 164 167 166 161 158 160 158 114 77 143
290 292 293 293 297 308 311 307 315 318 319 324 320 312 303 299 298 296 292 291 285 275 270 267 262 251 243 242 240 236 236 229 218 216 217 211 196 165 117 61 99 145 192 186 188 198 197 181 163 159 158 160 167 171 166 153 151 141 129 108 81 93